Merrill, WI

12:43 AM CDT on June 25, 2017 (GMT -0500)
Merrill Municipal

Weather History for KRRL - May, 2014

Change the Weather History Date:

Sunday, May 25, 2014

  Actual Average Record
Temperature  
Mean Temperature 60 °F -  
Max Temperature 80 °F 69 °F 90 °F (1911)
Min Temperature 41 °F 44 °F 28 °F (1979)
Degree Days  
Heating Degree Days 5    
Growing Degree Days 10 (Base 50)    
Moisture  
Dew Point 48 °F    
Average Humidity 61    
Maximum Humidity 100    
Minimum Humidity 30    
Precipitation  
Precipitation 0.00 in - - ()
Sea Level Pressure  
Sea Level Pressure 30.06 in    
Wind  
Wind Speed 2 mph (SW)    
Max Wind Speed 10 mph    
Max Gust Speed 18 mph    
Visibility 10 miles    
Events      
Averages and records for this station are not official NWS values.
T = Trace of Precipitation, MM = Missing Value Source: NWS Daily Summary

Daily Weather History Graph

Daily Weather History Graph

Search for Another Location

Airport or City:

Trip Planner

Search our weather history database for the weather conditions in past years. The results will help you decide how hot, cold, wet, or windy it might be!

Date:

Astronomy

May. 25, 2014 Rise Set
Actual Time 5:19 AM CDT 8:32 PM CDT
Civil Twilight 4:43 AM CDT 9:08 PM CDT
Nautical Twilight 3:57 AM CDT 9:55 PM CDT
Astronomical Twilight 3:00 AM CDT 10:52 PM CDT
Moon 3:33 AM CDT 5:25 PM CDT
Length of Visible Light 16h 24m
Length of Day
15h 13m
Waning Crescent, 10% of the Moon is Illuminated
May 25
Waning Crescent
May 28
New
Jun 5
First Quarter
Jun 12
Full
Jun 19
Last Quarter

Hourly Weather History & Observations

Time (CDT) Temp. Dew Point Humidity Pressure Visibility Wind Dir Wind Speed Gust Speed Precip Events Conditions
12:15 AM 51.1 °F 48.9 °F 92% 30.12 in 10.0 mi Calm Calm - N/A   Clear
12:35 AM 50.0 °F 48.4 °F 94% 30.12 in 10.0 mi Calm Calm - N/A   Clear
12:55 AM 47.5 °F 46.9 °F 98% 30.12 in 10.0 mi Calm Calm - N/A   Clear
1:15 AM 48.4 °F 47.1 °F 95% 30.12 in 10.0 mi Calm Calm - N/A   Clear
1:35 AM 47.1 °F 46.0 °F 96% 30.12 in 10.0 mi Calm Calm - N/A   Clear
1:55 AM 48.0 °F 47.7 °F 99% 30.12 in 10.0 mi Calm Calm - N/A   Clear
2:15 AM 45.7 °F 45.5 °F 99% 30.13 in 10.0 mi Calm Calm - N/A   Clear
2:35 AM 45.7 °F 45.3 °F 99% 30.13 in 10.0 mi Calm Calm - N/A   Clear
2:55 AM 45.3 °F 44.6 °F 97% 30.12 in 10.0 mi Calm Calm - N/A   Clear
3:15 AM 45.5 °F 45.1 °F 99% 30.12 in 10.0 mi Calm Calm - N/A   Clear
3:35 AM 44.6 °F 44.1 °F 98% 30.12 in 7.0 mi Calm Calm - N/A   Clear
3:55 AM 44.8 °F 44.8 °F 100% 30.12 in 5.0 mi Calm Calm - N/A   Clear
4:15 AM 43.5 °F 43.2 °F 99% 30.12 in 4.0 mi Calm Calm - N/A   Clear
4:35 AM 42.6 °F 42.1 °F 98% 30.12 in 3.0 mi Calm Calm - N/A   Clear
5:15 AM 41.4 °F 40.8 °F 98% 30.12 in 10.0 mi Calm Calm - N/A   Clear
5:35 AM 41.7 °F 41.5 °F 99% 30.12 in 5.0 mi Calm Calm - N/A   Clear
5:55 AM 41.9 °F 41.2 °F 97% 30.12 in 10.0 mi Calm Calm - N/A   Clear
6:15 AM 44.1 °F 43.5 °F 98% 30.11 in 10.0 mi Calm Calm - N/A   Clear
6:35 AM 47.1 °F 46.4 °F 97% 30.11 in 10.0 mi Calm Calm - N/A   Clear
6:55 AM 50.0 °F 48.2 °F 94% 30.11 in 10.0 mi Calm Calm - N/A   Clear
7:15 AM 53.2 °F 49.6 °F 88% 30.12 in 10.0 mi Calm Calm - N/A   Clear
7:35 AM 55.9 °F 49.8 °F 80% 30.12 in 10.0 mi Calm Calm - N/A   Clear
7:55 AM 58.1 °F 50.2 °F 75% 30.12 in 10.0 mi Calm Calm - N/A   Clear
8:15 AM 61.0 °F 51.3 °F 70% 30.11 in 10.0 mi Calm Calm - N/A   Clear
8:35 AM 63.7 °F 48.9 °F 59% 30.11 in 10.0 mi SSW 3.5 mph - N/A   Clear
8:55 AM 66.7 °F 47.3 °F 50% 30.11 in 10.0 mi WSW 4.6 mph - N/A   Clear
9:15 AM 68.0 °F 46.4 °F 46% 30.11 in 10.0 mi SW 4.6 mph - N/A   Clear
9:35 AM 69.1 °F 47.3 °F 46% 30.11 in 10.0 mi SW 8.1 mph - N/A   Clear
9:55 AM 70.0 °F 47.7 °F 45% 30.10 in 10.0 mi SW 9.2 mph - N/A   Clear
10:15 AM 70.7 °F 48.6 °F 45% 30.10 in 10.0 mi WSW 3.5 mph - N/A   Clear
10:35 AM 71.1 °F 49.1 °F 46% 30.10 in 10.0 mi South 5.8 mph - N/A   Clear
10:55 AM 72.1 °F 49.3 °F 44% 30.10 in 10.0 mi WSW 8.1 mph - N/A   Clear
11:15 AM 73.6 °F 48.2 °F 41% 30.10 in 10.0 mi SW 6.9 mph - N/A   Clear
11:55 AM 73.9 °F 48.0 °F 40% 30.08 in 10.0 mi West 8.1 mph - N/A   Clear
12:15 PM 75.2 °F 48.6 °F 39% 30.08 in 10.0 mi SW 10.4 mph - N/A   Clear
12:35 PM 75.9 °F 48.2 °F 37% 30.07 in 10.0 mi SSW 8.1 mph - N/A   Clear
12:55 PM 75.9 °F 46.9 °F 36% 30.07 in 10.0 mi SW 9.2 mph 17.3 mph N/A   Clear
1:15 PM 76.5 °F 46.9 °F 35% 30.07 in 10.0 mi WSW 8.1 mph - N/A   Clear
1:35 PM 76.6 °F 48.2 °F 37% 30.06 in 10.0 mi WSW 8.1 mph - N/A   Clear
1:55 PM 77.2 °F 47.1 °F 35% 30.05 in 10.0 mi SSW 9.2 mph - N/A   Clear
2:15 PM 77.2 °F 46.6 °F 34% 30.05 in 10.0 mi SW 5.8 mph 16.1 mph N/A   Clear
2:35 PM 77.4 °F 45.9 °F 33% 30.05 in 10.0 mi SSW 10.4 mph 18.4 mph N/A   Clear
2:55 PM 78.3 °F 47.7 °F 34% 30.04 in 10.0 mi South 5.8 mph - N/A   Clear
3:15 PM 78.4 °F 47.3 °F 33% 30.03 in 10.0 mi SW 8.1 mph 16.1 mph N/A   Clear
3:35 PM 79.7 °F 48.2 °F 33% 30.02 in 10.0 mi SW 9.2 mph - N/A   Clear
3:55 PM 79.2 °F 46.6 °F 32% 30.01 in 10.0 mi South 5.8 mph 9.2 mph N/A   Clear
4:15 PM 79.5 °F 46.4 °F 31% 30.01 in 10.0 mi SW 9.2 mph 16.1 mph N/A   Clear
4:35 PM 79.3 °F 45.7 °F 30% 30.00 in 10.0 mi WSW 4.6 mph 10.4 mph N/A   Clear
4:55 PM 79.7 °F 46.2 °F 31% 30.00 in 10.0 mi SSW 8.1 mph - N/A   Clear
5:15 PM 79.7 °F 47.3 °F 32% 29.99 in 10.0 mi SW 6.9 mph - N/A   Clear
5:35 PM 77.9 °F 46.4 °F 33% 29.98 in 10.0 mi SW 5.8 mph - N/A   Clear
5:55 PM 78.3 °F 47.7 °F 34% 29.98 in 10.0 mi WSW 6.9 mph - N/A   Clear
6:15 PM 78.1 °F 48.7 °F 36% 29.98 in 10.0 mi SW 5.8 mph - N/A   Clear
6:35 PM 78.1 °F 48.7 °F 36% 29.98 in 10.0 mi SW 4.6 mph - N/A   Clear
6:55 PM 78.3 °F 48.9 °F 36% 29.98 in 10.0 mi South 3.5 mph - N/A   Clear
7:15 PM 77.9 °F 48.9 °F 36% 29.97 in 10.0 mi South 5.8 mph - N/A   Clear
7:35 PM 77.0 °F 49.5 °F 38% 29.97 in 10.0 mi SSW 5.8 mph - N/A   Clear
7:55 PM 75.2 °F 50.0 °F 41% 29.98 in 10.0 mi SSW 3.5 mph - N/A   Clear
8:15 PM 74.3 °F 50.0 °F 42% 29.97 in 10.0 mi Calm Calm - N/A   Clear
8:35 PM 72.1 °F 50.4 °F 46% 29.98 in 10.0 mi Calm Calm - N/A   Clear
8:55 PM 68.4 °F 52.0 °F 56% 29.98 in 10.0 mi Calm Calm - N/A   Clear
9:15 PM 65.3 °F 53.1 °F 65% 29.99 in 10.0 mi Calm Calm - N/A   Clear
9:35 PM 64.4 °F 53.4 °F 67% 29.99 in 10.0 mi Calm Calm - N/A   Scattered Clouds
9:55 PM 63.7 °F 52.7 °F 67% 29.99 in 10.0 mi Calm Calm - N/A   Mostly Cloudy
10:15 PM 64.4 °F 53.1 °F 67% 29.99 in 10.0 mi Calm Calm - N/A   Overcast
10:35 PM 68.0 °F 53.1 °F 59% 29.99 in 10.0 mi SSW 3.5 mph - N/A   Overcast
10:55 PM 68.9 °F 53.1 °F 57% 29.98 in 10.0 mi SSW 3.5 mph - N/A   Overcast
11:15 PM 68.9 °F 53.2 °F 57% 29.98 in 10.0 mi Calm Calm - N/A   Overcast
11:35 PM 69.4 °F 52.9 °F 56% 29.97 in 10.0 mi South 3.5 mph - N/A   Overcast
11:55 PM 69.1 °F 53.1 °F 57% 29.97 in 10.0 mi Calm Calm - N/A   Mostly Cloudy